| time (UTC) | temp F | wind direction | speed MPH | gust MPH | rain 1hr in | rain 24hr in | rain mn in | humidity % | barometer mb |
| 20260505095547 | 51 | 149 | 1.0 | 2.0 | 0.00 | 0.00 | 0.00 | 84 | 1014.9 |
| 20260505095058 | 51 | 149 | 0.0 | 2.0 | 0.00 | 0.00 | 0.00 | 84 | 1014.9 |
| 20260505093549 | 52 | 149 | 0.0 | 2.0 | 0.00 | 0.00 | 0.00 | 83 | 1014.9 |
| 20260505092602 | 52 | 149 | 0.0 | 1.0 | 0.00 | 0.00 | 0.00 | 82 | 1015.1 |
| 20260505092051 | 52 | 149 | 0.0 | 2.0 | 0.00 | 0.00 | 0.00 | 82 | 1015.2 |
| 20260505091558 | 52 | 149 | 0.0 | 2.0 | 0.00 | 0.00 | 0.00 | 82 | 1015.2 |
| 20260505090601 | 53 | 149 | 0.0 | 2.0 | 0.00 | 0.00 | 0.00 | 81 | 1015.3 |
| 20260505090051 | 53 | 149 | 0.0 | 2.0 | 0.00 | 0.00 | 0.00 | 80 | 1015.4 |
| 20260505085558 | 53 | 149 | 0.0 | 1.0 | 0.00 | 0.00 | 0.00 | 81 | 1015.4 |
| 20260505085047 | 53 | 149 | 0.0 | 1.0 | 0.00 | 0.00 | 0.00 | 80 | 1015.4 |
| 20260505084556 | 53 | 149 | 0.0 | 1.0 | 0.00 | 0.00 | 0.00 | 79 | 1015.5 |
| 20260505084103 | 54 | 149 | 0.0 | 2.0 | 0.00 | 0.00 | 0.00 | 79 | 1015.4 |
| 20260505082553 | 54 | 149 | 1.0 | 2.0 | 0.00 | 0.00 | 0.00 | 79 | 1015.3 |
| 20260505082101 | 54 | 149 | 0.0 | 2.0 | 0.00 | 0.00 | 0.00 | 78 | 1015.2 |
| 20260505081102 | 54 | 149 | 0.0 | 3.0 | 0.00 | 0.00 | 0.00 | 78 | 1015.2 |
| 20260505080553 | 54 | 150 | 0.0 | 3.0 | 0.00 | 0.00 | 0.00 | 79 | 1015.3 |
| 20260505075549 | 53 | 123 | 0.0 | 0.0 | 0.00 | 0.00 | 0.00 | 81 | 1015.2 |
| 20260505075059 | 53 | 123 | 0.0 | 0.0 | 0.00 | 0.00 | 0.00 | 81 | 1015.2 |
| 20260505074549 | 53 | 122 | 0.0 | 0.0 | 0.00 | 0.00 | 0.00 | 81 | 1015.1 |
| 20260505074100 | 53 | 122 | 0.0 | 0.0 | 0.00 | 0.00 | 0.00 | 81 | 1015.0 |
| 20260505073550 | 53 | 122 | 0.0 | 0.0 | 0.00 | 0.00 | 0.00 | 80 | 1015.1 |
| 20260505073059 | 53 | 122 | 0.0 | 0.0 | 0.00 | 0.00 | 0.00 | 80 | 1015.1 |
| 20260505072603 | 53 | 122 | 0.0 | 0.0 | 0.00 | 0.00 | 0.00 | 80 | 1015.1 |
| 20260505072047 | 54 | 122 | 0.0 | 0.0 | 0.00 | 0.00 | 0.00 | 80 | 1015.1 |
| 20260505071601 | 54 | 122 | 0.0 | 0.0 | 0.00 | 0.00 | 0.00 | 80 | 1015.1 |
| 20260505071049 | 54 | 122 | 0.0 | 0.0 | 0.00 | 0.00 | 0.00 | 80 | 1015.0 |
| 20260505070558 | 54 | 122 | 0.0 | 0.0 | 0.00 | 0.00 | 0.00 | 79 | 1015.0 |
| 20260505070105 | 54 | 122 | 0.0 | 0.0 | 0.00 | 0.00 | 0.00 | 79 | 1014.9 |
| 20260505065056 | 55 | 122 | 0.0 | 0.0 | 0.00 | 0.00 | 0.00 | 78 | 1015.0 |
| 20260505064549 | 55 | 122 | 0.0 | 0.0 | 0.00 | 0.00 | 0.00 | 77 | 1014.9 |
| 20260505064100 | 56 | 122 | 0.0 | 1.0 | 0.00 | 0.00 | 0.00 | 76 | 1014.9 |
| 20260505063102 | 57 | 122 | 0.0 | 2.0 | 0.00 | 0.00 | 0.00 | 72 | 1015.0 |
| 20260505062548 | 58 | 122 | 0.0 | 0.0 | 0.00 | 0.00 | 0.00 | 71 | 1015.0 |
| 20260505062051 | 58 | 122 | 0.0 | 0.0 | 0.00 | 0.00 | 0.00 | 67 | 1015.0 |
| 20260505061602 | 57 | 122 | 0.0 | 0.0 | 0.00 | 0.00 | 0.00 | 69 | 1015.1 |
| 20260505061051 | 56 | 122 | 0.0 | 0.0 | 0.00 | 0.00 | 0.00 | 74 | 1015.1 |
| 20260505060543 | 57 | 122 | 0.0 | 0.0 | 0.00 | 0.00 | 0.00 | 73 | 1015.2 |
| 20260505060054 | 58 | 122 | 0.0 | 0.0 | 0.00 | 0.00 | 0.00 | 71 | 1015.2 |
| 20260505055559 | 58 | 119 | 0.0 | 0.0 | 0.00 | 0.00 | 0.00 | 68 | 1015.2 |
| 20260505055049 | 57 | 119 | 0.0 | 0.0 | 0.00 | 0.00 | 0.00 | 70 | 1015.2 |
| 20260505054556 | 57 | 110 | 0.0 | 0.0 | 0.00 | 0.00 | 0.00 | 73 | 1015.2 |
| 20260505054101 | 56 | 110 | 0.0 | 0.0 | 0.00 | 0.00 | 0.00 | 74 | 1015.2 |
| 20260505053552 | 57 | 110 | 0.0 | 0.0 | 0.00 | 0.00 | 0.00 | 75 | 1015.3 |
| 20260505053100 | 57 | 110 | 0.0 | 0.0 | 0.00 | 0.00 | 0.00 | 74 | 1015.3 |
| 20260505052550 | 57 | 95 | 0.0 | 0.0 | 0.00 | 0.00 | 0.00 | 73 | 1015.3 |
| 20260505052056 | 56 | 95 | 0.0 | 0.0 | 0.00 | 0.00 | 0.00 | 76 | 1015.3 |
| 20260505051547 | 56 | 95 | 0.0 | 0.0 | 0.00 | 0.00 | 0.00 | 75 | 1015.3 |
| 20260505051100 | 57 | 95 | 0.0 | 0.0 | 0.00 | 0.00 | 0.00 | 75 | 1015.2 |
| 20260505050554 | 57 | 95 | 0.0 | 0.0 | 0.00 | 0.00 | 0.00 | 73 | 1015.2 |
| 20260505041559 | 59 | 95 | 0.0 | 0.0 | 0.00 | 0.00 | 0.00 | 69 | 1015.2 |
| 20260505041047 | 60 | 95 | 0.0 | 0.0 | 0.00 | 0.00 | 0.00 | 66 | 1015.3 |
| 20260505040557 | 60 | 95 | 0.0 | 0.0 | 0.00 | 0.00 | 0.00 | 66 | 1015.3 |
| 20260505040135 | 60 | 95 | 0.0 | 0.0 | 0.00 | 0.00 | 0.00 | 66 | 1015.2 |
| 20260505035549 | 60 | 95 | 0.0 | 0.0 | 0.00 | 0.00 | 0.00 | 66 | 1015.2 |
| 20260505035056 | 60 | 95 | 0.0 | 0.0 | 0.00 | 0.00 | 0.00 | 66 | 1015.2 |
| 20260505034605 | 61 | 95 | 0.0 | 0.0 | 0.00 | 0.00 | 0.00 | 66 | 1015.2 |
| 20260505034052 | 61 | 95 | 0.0 | 0.0 | 0.00 | 0.00 | 0.00 | 65 | 1015.3 |
| 20260505033601 | 61 | 95 | 0.0 | 0.0 | 0.00 | 0.00 | 0.00 | 63 | 1015.4 |
| 20260505033048 | 61 | 95 | 0.0 | 0.0 | 0.00 | 0.00 | 0.00 | 65 | 1015.4 |
| 20260505032552 | 61 | 95 | 0.0 | 0.0 | 0.00 | 0.00 | 0.00 | 65 | 1015.4 |
| 20260505032101 | 61 | 95 | 0.0 | 0.0 | 0.00 | 0.00 | 0.00 | 64 | 1015.4 |
| 20260505031551 | 62 | 95 | 0.0 | 0.0 | 0.00 | 0.00 | 0.00 | 63 | 1015.3 |
| 20260505030555 | 62 | 95 | 0.0 | 1.0 | 0.00 | 0.00 | 0.00 | 64 | 1015.4 |
| 20260505030507 | 61 | 95 | 0.0 | 1.0 | 0.00 | 0.00 | 0.00 | 64 | 1014.9 |
| 20260505030133 | 62 | 95 | 0.0 | 1.0 | 0.00 | 0.00 | 0.00 | 63 | 1015.4 |
| 20260505030034 | 61 | 95 | 0.0 | 1.0 | 0.00 | 0.00 | 0.00 | 63 | 1014.9 |
| 20260505025553 | 62 | 95 | 0.0 | 1.0 | 0.00 | 0.00 | 0.00 | 62 | 1015.4 |
| 20260505025055 | 63 | 95 | 0.0 | 1.0 | 0.00 | 0.00 | 0.00 | 62 | 1015.3 |
| 20260505024548 | 64 | 95 | 0.0 | 1.0 | 0.00 | 0.00 | 0.00 | 61 | 1015.4 |
| 20260505023548 | 65 | 95 | 0.0 | 1.0 | 0.00 | 0.00 | 0.00 | 58 | 1015.4 |
| 20260505023057 | 65 | 95 | 0.0 | 1.0 | 0.00 | 0.00 | 0.00 | 58 | 1015.3 |
| 20260505022602 | 65 | 95 | 0.0 | 2.0 | 0.00 | 0.00 | 0.00 | 57 | 1015.2 |
| 20260505022052 | 65 | 95 | 0.0 | 2.0 | 0.00 | 0.00 | 0.00 | 57 | 1015.2 |
| 20260505021558 | 65 | 95 | 0.0 | 1.0 | 0.00 | 0.00 | 0.00 | 57 | 1015.3 |
| 20260505020559 | 65 | 95 | 0.0 | 2.0 | 0.00 | 0.00 | 0.00 | 57 | 1015.3 |
| 20260505020052 | 65 | 95 | 0.0 | 2.0 | 0.00 | 0.00 | 0.00 | 58 | 1015.2 |
| 20260505015555 | 64 | 179 | 0.0 | 2.0 | 0.00 | 0.00 | 0.00 | 59 | 1015.2 |
| 20260505015044 | 64 | 179 | 1.0 | 2.0 | 0.00 | 0.00 | 0.00 | 60 | 1015.0 |
| 20260505014558 | 64 | 179 | 0.0 | 0.0 | 0.00 | 0.00 | 0.00 | 59 | 1015.0 |
| 20260505014046 | 65 | 179 | 0.0 | 0.0 | 0.00 | 0.00 | 0.00 | 58 | 1015.0 |
| 20260505013552 | 65 | 179 | 0.0 | 0.0 | 0.00 | 0.00 | 0.00 | 57 | 1015.0 |
| 20260505013100 | 65 | 179 | 0.0 | 0.0 | 0.00 | 0.00 | 0.00 | 56 | 1014.9 |
| 20260505012545 | 66 | 179 | 0.0 | 0.0 | 0.00 | 0.00 | 0.00 | 55 | 1014.9 |
| 20260505012055 | 67 | 179 | 0.0 | 0.0 | 0.00 | 0.00 | 0.00 | 53 | 1014.9 |
| 20260505011546 | 67 | 179 | 0.0 | 0.0 | 0.00 | 0.00 | 0.00 | 53 | 1014.8 |
| 20260505010550 | 69 | 179 | 0.0 | 0.0 | 0.00 | 0.00 | 0.00 | 49 | 1014.7 |
| 20260505010056 | 70 | 179 | 0.0 | 1.0 | 0.00 | 0.00 | 0.00 | 48 | 1014.6 |
| 20260505005558 | 70 | 179 | 0.0 | 1.0 | 0.00 | 0.00 | 0.00 | 47 | 1014.7 |
| 20260505005048 | 70 | 179 | 0.0 | 3.0 | 0.00 | 0.00 | 0.00 | 46 | 1014.6 |
| 20260505004558 | 71 | 179 | 1.0 | 4.0 | 0.00 | 0.00 | 0.00 | 46 | 1014.6 |
| 20260505003558 | 71 | 175 | 2.0 | 6.0 | 0.00 | 0.00 | 0.00 | 45 | 1014.4 |
| 20260505002550 | 72 | 167 | 0.0 | 1.0 | 0.00 | 0.00 | 0.00 | 44 | 1014.3 |
| 20260505002059 | 73 | 167 | 0.0 | 2.0 | 0.00 | 0.00 | 0.00 | 44 | 1014.2 |
| 20260505001607 | 73 | 167 | 0.0 | 2.0 | 0.00 | 0.00 | 0.00 | 43 | 1014.3 |
| 20260505001053 | 73 | 166 | 1.0 | 2.0 | 0.00 | 0.00 | 0.00 | 44 | 1014.2 |
| 20260505000559 | 73 | 166 | 1.0 | 2.0 | 0.00 | 0.00 | 0.00 | 43 | 1014.2 |
| 20260504235558 | 74 | 180 | 0.0 | 3.0 | 0.00 | 0.00 | 0.00 | 41 | 1014.1 |
| 20260504235048 | 74 | 180 | 1.0 | 3.0 | 0.00 | 0.00 | 0.00 | 41 | 1014.1 |
| 20260504234552 | 74 | 143 | 1.0 | 3.0 | 0.00 | 0.00 | 0.00 | 41 | 1014.1 |
| 20260504234102 | 74 | 195 | 0.0 | 4.0 | 0.00 | 0.00 | 0.00 | 41 | 1014.1 |
| 20260504233553 | 75 | 184 | 1.0 | 5.0 | 0.00 | 0.00 | 0.00 | 40 | 1014.2 |
| 20260504233101 | 75 | 133 | 0.0 | 5.0 | 0.00 | 0.00 | 0.00 | 40 | 1014.2 |
| 20260504232545 | 75 | 131 | 1.0 | 5.0 | 0.00 | 0.00 | 0.00 | 39 | 1014.2 |
| 20260504232051 | 75 | 109 | 0.0 | 6.0 | 0.00 | 0.00 | 0.00 | 39 | 1014.2 |
| 20260504230602 | 75 | 188 | 2.0 | 5.0 | 0.00 | 0.00 | 0.00 | 39 | 1014.4 |
| 20260504230051 | 75 | 122 | 1.0 | 5.0 | 0.00 | 0.00 | 0.00 | 39 | 1014.4 |
| 20260504225555 | 75 | 195 | 2.0 | 5.0 | 0.00 | 0.00 | 0.00 | 38 | 1014.3 |
| 20260504225100 | 76 | 228 | 1.0 | 5.0 | 0.00 | 0.00 | 0.00 | 38 | 1014.3 |
| 20260504224547 | 76 | 144 | 1.0 | 8.0 | 0.00 | 0.00 | 0.00 | 39 | 1014.4 |
| 20260504224059 | 75 | 132 | 3.0 | 8.0 | 0.00 | 0.00 | 0.00 | 39 | 1014.4 |
| 20260504223546 | 76 | 234 | 2.0 | 5.0 | 0.00 | 0.00 | 0.00 | 38 | 1014.3 |
| 20260504223100 | 76 | 113 | 1.0 | 5.0 | 0.00 | 0.00 | 0.00 | 37 | 1014.4 |
| 20260504222058 | 76 | 194 | 3.0 | 5.0 | 0.00 | 0.00 | 0.00 | 38 | 1014.4 |
| 20260504221544 | 76 | 141 | 2.0 | 6.0 | 0.00 | 0.00 | 0.00 | 39 | 1014.4 |
| 20260504221057 | 76 | 120 | 2.0 | 6.0 | 0.00 | 0.00 | 0.00 | 38 | 1014.4 |
| 20260504220604 | 76 | 149 | 2.0 | 5.0 | 0.00 | 0.00 | 0.00 | 41 | 1014.4 |
| 20260504220057 | 76 | 188 | 2.0 | 5.0 | 0.00 | 0.00 | 0.00 | 38 | 1014.4 |
| 20260504215602 | 76 | 186 | 2.0 | 5.0 | 0.00 | 0.00 | 0.00 | 40 | 1014.4 |
| 20260504215052 | 76 | 105 | 1.0 | 8.0 | 0.00 | 0.00 | 0.00 | 38 | 1014.3 |
| 20260504214552 | 76 | 145 | 1.0 | 8.0 | 0.00 | 0.00 | 0.00 | 38 | 1014.2 |
| 20260504214100 | 76 | 188 | 2.0 | 6.0 | 0.00 | 0.00 | 0.00 | 37 | 1014.3 |
| 20260504213547 | 76 | 217 | 4.0 | 6.0 | 0.00 | 0.00 | 0.00 | 37 | 1014.3 |
| 20260504213054 | 75 | 131 | 3.0 | 6.0 | 0.00 | 0.00 | 0.00 | 37 | 1014.3 |
| 20260504212519 | 75 | 189 | 2.0 | 4.0 | 0.00 | 0.00 | 0.00 | 36 | 1013.8 |
| 20260504212047 | 76 | 154 | 2.0 | 5.0 | 0.00 | 0.00 | 0.00 | 36 | 1014.2 |
| 20260504211558 | 76 | 119 | 2.0 | 5.0 | 0.00 | 0.00 | 0.00 | 37 | 1014.2 |
| 20260504211048 | 76 | 144 | 1.0 | 6.0 | 0.00 | 0.00 | 0.00 | 37 | 1014.3 |
| 20260504210559 | 76 | 148 | 1.0 | 6.0 | 0.00 | 0.00 | 0.00 | 37 | 1014.3 |
| 20260504210116 | 76 | 186 | 2.0 | 7.0 | 0.00 | 0.00 | 0.00 | 36 | 1014.4 |
| 20260504205600 | 76 | 162 | 3.0 | 7.0 | 0.00 | 0.00 | 0.00 | 36 | 1014.5 |
| 20260504204552 | 76 | 181 | 2.0 | 5.0 | 0.00 | 0.00 | 0.00 | 39 | 1014.6 |
| 20260504204101 | 76 | 201 | 2.0 | 6.0 | 0.00 | 0.00 | 0.00 | 38 | 1014.6 |
| 20260504203547 | 77 | 220 | 2.0 | 6.0 | 0.00 | 0.00 | 0.00 | 37 | 1014.6 |
| 20260504203056 | 76 | 136 | 2.0 | 5.0 | 0.00 | 0.00 | 0.00 | 36 | 1014.6 |
| 20260504202602 | 76 | 192 | 3.0 | 6.0 | 0.00 | 0.00 | 0.00 | 37 | 1014.7 |
| 20260504202054 | 77 | 195 | 2.0 | 8.0 | 0.00 | 0.00 | 0.00 | 35 | 1014.8 |
| 20260504201542 | 77 | 242 | 2.0 | 10.0 | 0.00 | 0.00 | 0.00 | 34 | 1014.7 |
| 20260504201055 | 77 | 162 | 2.0 | 10.0 | 0.00 | 0.00 | 0.00 | 38 | 1014.8 |
| 20260504200546 | 76 | 200 | 2.0 | 5.0 | 0.00 | 0.00 | 0.00 | 35 | 1014.8 |
| 20260504200051 | 76 | 188 | 1.0 | 5.0 | 0.00 | 0.00 | 0.00 | 36 | 1014.9 |
| 20260504195558 | 76 | 47 | 1.0 | 7.0 | 0.00 | 0.00 | 0.00 | 36 | 1014.9 |
| 20260504195051 | 77 | 181 | 5.0 | 7.0 | 0.00 | 0.00 | 0.00 | 33 | 1015.0 |
| 20260504194558 | 77 | 206 | 2.0 | 8.0 | 0.00 | 0.00 | 0.00 | 33 | 1015.0 |
| 20260504194047 | 78 | 131 | 3.0 | 8.0 | 0.00 | 0.00 | 0.00 | 31 | 1015.1 |
| 20260504193052 | 77 | 217 | 2.0 | 5.0 | 0.00 | 0.00 | 0.00 | 36 | 1015.3 |
| 20260504192555 | 77 | 162 | 3.0 | 8.0 | 0.00 | 0.00 | 0.00 | 39 | 1015.4 |
| 20260504192103 | 77 | 186 | 3.0 | 8.0 | 0.00 | 0.00 | 0.00 | 40 | 1015.4 |
| 20260504191555 | 76 | 167 | 2.0 | 3.0 | 0.00 | 0.00 | 0.00 | 37 | 1015.6 |
| 20260504191106 | 77 | 227 | 1.0 | 5.0 | 0.00 | 0.00 | 0.00 | 37 | 1015.6 |
| 20260504190553 | 77 | 189 | 3.0 | 5.0 | 0.00 | 0.00 | 0.00 | 40 | 1015.6 |
| 20260504185549 | 77 | 255 | 4.0 | 8.0 | 0.00 | 0.00 | 0.00 | 37 | 1015.8 |
| 20260504185057 | 77 | 229 | 3.0 | 8.0 | 0.00 | 0.00 | 0.00 | 40 | 1015.8 |
| 20260504184601 | 76 | 101 | 1.0 | 7.0 | 0.00 | 0.00 | 0.00 | 38 | 1015.9 |
| 20260504184050 | 76 | 214 | 2.0 | 5.0 | 0.00 | 0.00 | 0.00 | 38 | 1016.0 |
| 20260504183602 | 77 | 209 | 2.0 | 7.0 | 0.00 | 0.00 | 0.00 | 39 | 1016.0 |
| 20260504182602 | 76 | 176 | 2.0 | 4.0 | 0.00 | 0.00 | 0.00 | 37 | 1016.2 |
| 20260504182052 | 76 | 148 | 0.0 | 5.0 | 0.00 | 0.00 | 0.00 | 37 | 1016.2 |
| 20260504181544 | 77 | 167 | 2.0 | 8.0 | 0.00 | 0.00 | 0.00 | 35 | 1016.3 |
| 20260504181055 | 77 | 189 | 4.0 | 8.0 | 0.00 | 0.00 | 0.00 | 35 | 1016.4 |
| 20260504180602 | 77 | 152 | 4.0 | 7.0 | 0.00 | 0.00 | 0.00 | 39 | 1016.4 |
| 20260504180109 | 76 | 202 | 2.0 | 7.0 | 0.00 | 0.00 | 0.00 | 39 | 1016.4 |
| 20260504175552 | 75 | 172 | 1.0 | 7.0 | 0.00 | 0.00 | 0.00 | 38 | 1016.5 |
| 20260504175103 | 75 | 82 | 2.0 | 6.0 | 0.00 | 0.00 | 0.00 | 39 | 1016.5 |
| 20260504174553 | 76 | 196 | 3.0 | 7.0 | 0.00 | 0.00 | 0.00 | 41 | 1016.7 |
| 20260504173555 | 76 | 155 | 2.0 | 6.0 | 0.00 | 0.00 | 0.00 | 42 | 1016.8 |
| 20260504173101 | 75 | 169 | 2.0 | 6.0 | 0.00 | 0.00 | 0.00 | 43 | 1016.8 |
| 20260504172549 | 75 | 202 | 0.0 | 6.0 | 0.00 | 0.00 | 0.00 | 41 | 1016.9 |
| 20260504172100 | 74 | 219 | 3.0 | 6.0 | 0.00 | 0.00 | 0.00 | 41 | 1017.0 |
| 20260504171551 | 73 | 46 | 1.0 | 3.0 | 0.00 | 0.00 | 0.00 | 41 | 1017.1 |
| 20260504171058 | 73 | 47 | 2.0 | 4.0 | 0.00 | 0.00 | 0.00 | 42 | 1017.1 |
| 20260504170550 | 74 | 130 | 2.0 | 4.0 | 0.00 | 0.00 | 0.00 | 42 | 1017.1 |
| 20260504170504 | 73 | 187 | 2.0 | 4.0 | 0.00 | 0.00 | 0.00 | 42 | 1016.7 |
| 20260504170134 | 74 | 288 | 1.0 | 5.0 | 0.00 | 0.00 | 0.00 | 42 | 1017.1 |
| 20260504151052 | 69 | 195 | 4.0 | 8.0 | 0.00 | 0.00 | 0.00 | 46 | 1018.3 |
| 20260504150543 | 69 | 176 | 1.0 | 4.0 | 0.00 | 0.00 | 0.00 | 48 | 1018.2 |
| 20260504141054 | 63 | 165 | 3.0 | 5.0 | 0.00 | 0.00 | 0.00 | 64 | 1018.6 |
| 20260504140546 | 62 | 212 | 1.0 | 5.0 | 0.00 | 0.00 | 0.00 | 66 | 1018.7 |
| 20260504130545 | 54 | 184 | 1.0 | 2.0 | 0.00 | 0.00 | 0.00 | 78 | 1018.5 |
| 20260504110553 | 44 | 295 | 0.0 | 0.0 | 0.00 | 0.00 | 0.00 | 93 | 1017.8 |
| 20260504110508 | 44 | 295 | 0.0 | 0.0 | 0.00 | 0.00 | 0.00 | 93 | 1017.6 |
| 20260504110135 | 44 | 295 | 0.0 | 0.0 | 0.00 | 0.00 | 0.00 | 93 | 1017.7 |
| 20260504100555 | 45 | 169 | 0.0 | 0.0 | 0.00 | 0.00 | 0.00 | 93 | 1017.7 |